Regional Weather Roundup
Issued by NWS Charleston, SC

Current Version | Previous Version | Graphics & Text | Print | Product List | Glossary On
Versions: 1 2 3 4 5 6 7 8 9 10 11 12 13 14 15 16 17 18 19 20 21 22 23 24 25 26 27 28 29 30 31 32 33 34 35 36 37 38 39 40 41 42 43 44 45 46 47 48 49 50
000 ASUS42 KCHS 260412 RWRCHS REGIONAL WEATHER ROUNDUP NATIONAL WEATHER SERVICE CHARLESTON SC 1200 AM EDT TUE MAY 26 2015 NOTE: "FAIR" INDICATES FEW OR NO CLOUDS BELOW 12,000 FEET WITH NO SIGNIFICANT WEATHER AND/OR OBSTRUCTIONS TO VISIBILITY. NOT ALL STATIONS ARE QUALITY CONTROLLED BY THE NATIONAL WEATHER SERVICE. USE DATA WITH CAUTION...ESPECIALLY DEWPOINT OBSERVATIONS. SCZ027-030-031-034>040-042>050-260500- ...SOUTHEAST SOUTH CAROLINA... CITY SKY/WX TMP DP RH WIND PRES REMARKS N CHARLESTON PTCLDY 72 68 87 E7 30.26F WATERFRONT PAR N/A 75 71 87 E10 30.23S MOUNT PLEASANT LGT RAIN 73 70 88 E5 30.27S JOHNS ISLAND CLEAR 73 72 94 E8 30.27S PINOPOLIS N/A 73 68 83 SE5 30.20R MONCKS CORNER FAIR 70 66 88 CALM 30.26F SUMMERVILLE FAIR 70 68 94 CALM 30.27S BEAUFORT MCAS PTCLDY 74 70 87 SE7 30.25F BEAUFORT ARPT FAIR 73 72 94 E7 30.25S HILTON HEAD IS PTCLDY 75 72 88 E7 30.26F WALTERBORO PTCLDY 68 66 94 E5 30.27S ALLENDALE N/A 72 68 88 CALM 30.26R ...SOUTHERN MIDLANDS AND PEE DEE... CITY SKY/WX TMP DP RH WIND PRES REMARKS GEORGETOWN NOT AVBL KINGSTREE NOT AVBL ORANGEBURG MOCLDY 71 66 84 SE3 30.27S BARNWELL FAIR 73 70 88 E7 30.27S AIKEN FAIR 72 63 73 SE8 30.29S MANNING FAIR 68 54 60 CALM 30.27S COLUMBIA MOCLDY 73 65 75 SE7 30.26R SUMTER PTCLDY 71 66 83 SE5 30.25F FLORENCE CLEAR 68 64 87 S5 30.27F MYRTLE BEACH CLEAR 73 66 78 SE12 30.30F N MYRTLE BEACH CLEAR 75 67 76 SE7 30.29S $$ GAZ063-065-086>088-099>101-113>116-118-119-134>141-150-260500- ...SOUTHEAST GEORGIA... CITY SKY/WX TMP DP RH WIND PRES REMARKS SAVANNAH ARPT PTCLDY 74 70 87 E9 30.24F HUNTER AAF CLEAR 74 73 96 E6 30.22F FORT STEWART CLEAR 71 69 92 E5 30.22S STATESBORO PTCLDY 72 72 100 SE3 30.24F SYLVANIA PTCLDY 73 71 96 E3 30.26S CLAXTON FAIR 72 70 94 E3 30.23F ...CSRA...CENTRAL AND FAR SOUTHEAST GEORGIA... CITY SKY/WX TMP DP RH WIND PRES REMARKS THOMSON CLOUDY 76 71 83 SE3 30.28S AUGUSTA-BUSH PTCLDY 72 67 84 SE6 30.24S AUGUSTA-DANIEL PTCLDY 75 66 73 SE6 30.26R SWAINSBORO FAIR 75 70 83 SE6 30.24S VIDALIA PTCLDY 72 70 94 SE5 30.23S EASTMAN FAIR 73 73 100 SE6 30.23S HAZLEHURST FAIR 75 71 86 SE5 30.21S ALMA CLEAR 74 70 87 SE8 30.22S WAYCROSS MOCLDY 75 73 95 SE5 30.22R JESUP FAIR 75 72 88 SE5 30.23F BAXLEY FAIR 73 72 94 SE3 30.22S BRUNSWICK PTCLDY 75 72 88 E7 30.24S SAINT SIMONS NOT AVBL $$ SCZ027-028-034-036>038-045-046-048>050-GAZ119-141-260500- ...LAKE AND SUPPLEMENTAL COASTAL OBSERVATIONS... STATION/POSITION TIME TEMP WIND PRES WAVE SWELL AIR SEA DIR/SP/G HT/PER HT/PER/DIR (UTC) (F) (DEG/KT/KT) (MB) (FT/S) (FT/S/D) UPR LAKE MARION NOT AVBL WINYAH BAY NOT AVBL LAKE MURRAY 0300 76 130/ 5/ 11 1023.7R ACE BASIN NERRS NOT AVBL FORT PULASKI 0300 76 78 90/ 14/ 16 1024.9R SAPELO ISLAND 0300 75 90/ 6 1024.0R $$ ANZ835-935-AMZ111-154-330-350-352-354-370-450-454-472-260500- ...C-MAN AND BUOY OBSERVATIONS... STATION/POSITION TIME TEMP WIND PRES WAVE SWELL AIR SEA DIR/SP/G HT/PER HT/PER/DIR (UTC) (F) (DEG/KT/KT) (MB) (FT/S) (FT/S/D) BUOY 41004 0350 75 75 90/ 12/ 12 1024.3F 4/ 6 3/ 6 BUOY 41008 0350 76 76 100/ 10/ 10 1024.3S 3/ 7 3/100/ 7 FOLLY BEACH CMAN 0400 75 100/ 12/ 14 1024.9F CAPERS NEARSHORE 0308 75 120/ 12/ 16 1025.1R FRIPP NEARSHORE 0300 76 110/ 14/ 16 1023.8R STATION/POSITION TIME TEMP WIND PRES WAVE SWELL AIR SEA DIR/SP/G HT/PER HT/PER/DIR (UTC) (F) (DEG/KT/KT) (MB) (FT/S) (FT/S/D) 5E ST. MARYS GA 0351 79 N/A 3/ 7 FRYING PAN BUOY 0350 76 74 120/ 10/ 12 1026.7F 3/ 6 3/120/ 6 BUOY 41025 0350 74 76 170/ 14/ 16 1027.0F 3/ 6 2/ 90/ 8 CAPE LOOKOUT NC 0300 74 160/ 11/ 12 1026.7R BUOY 41002 0350 74 74 120/ 14/ 16 1026.8F 4/ 6 2/100/ 7 BUOY 41010 0320 79 81 120/ 12/ 14 1024.1S ST AUGUSTINE FL 0400 78 79 130/ 10/ 11 1023.9F $$

USA.gov is the U.S. government's official web portal to all federal, state and local government web resources and services.